Location: Meanaryar
(48.4161°N, 4.7315°W)
Time: 06:14:40
(UTC+00:00)

Cosmos 1842 - Pass Details

Date: 18 September 2020
Orbit: 521 x 536 km, 82.5° (Epoch: 23 October)

Event Time Altitude Azimuth Distance (km) Brightness Sun altitude
Rises 19:00:52 0° 350° (N) 2,663 7.1 -6.8°
Reaches altitude 10° 19:03:01 10° 352° (N) 1,770 6.2 -7.2°
Maximum altitude 19:06:54 85° 79° (E) 532 3.2 -7.8°
Drops below altitude 10° 19:10:46 10° 170° (S) 1,757 5.7 -8.5°
Sets 19:12:53 0° 171° (S) 2,642 6.6 -8.8°
